Location: Del Amo
(33.8464°N, 118.2104°W)
Time: 05:12:07
(UTC+00:00)

Vanguard 2 Rocket - Pass Details

Date: 22 September 2024
Orbit: 553 x 3299 km, 32.9° (Epoch: 05 October)

Event Time Altitude Azimuth Distance (km) Brightness Sun altitude
Rises 08:05:24 0° 256° (WSW) 3,519 - -55.8°
Reaches altitude 10° 08:07:28 10° 255° (WSW) 2,798 - -55.7°
Maximum altitude 08:14:22 80° 169° (S) 1,483 - -55.4°
Exits shadow 08:23:27 20° 86° (E) 3,799 10.0 -54.9°
Drops below altitude 10° 08:27:06 10° 85° (E) 4,918 10.7 -54.7°
Sets 08:31:56 0° 85° (E) 6,340 11.4 -54.4°
